contact:dominique.lefevre@mio.osupytheas.fr, maurice.libes@osupytheas.fr, didier.mallarino@osupytheas.fr
Project:EMSO http://www.emso-fr.org/EMSO-France
Depth: 2436.0 m
Title:EMSO Ligure Ouest : Data MII capteur MICROCAT
DateTime_Computer,Latitude,Longitude,Temperature,Conductivity,Pressure,DateTime_Instrument
DateTime_Computer,Latitude,Longitude,degC,S m-1,dbar,DateTime_Instrument
2019-08-16T00:02:46Z,42.805,6.029,13.2974,4.59962,2469.914,2019-8-16T02:03:06Z
2019-08-16T00:05:49Z,42.805,6.029,13.2961,4.59966,2469.876,2019-8-16T02:06:10Z
2019-08-16T00:08:52Z,42.805,6.029,13.2957,4.59961,2469.937,2019-8-16T02:09:13Z
2019-08-16T00:11:55Z,42.805,6.029,13.3024,4.59978,2469.876,2019-8-16T02:12:16Z
2019-08-16T00:14:58Z,42.805,6.029,13.2962,4.59964,2469.89,2019-8-16T02:15:19Z
2019-08-16T00:18:02Z,42.805,6.029,13.2965,4.59976,2469.937,2019-8-16T02:18:22Z
2019-08-16T00:21:05Z,42.805,6.029,13.2976,4.59981,2469.89,2019-8-16T02:21:26Z
2019-08-16T00:24:08Z,42.805,6.029,13.2961,4.59961,2469.89,2019-8-16T02:24:29Z
2019-08-16T00:27:11Z,42.805,6.029,13.2971,4.59962,2469.914,2019-8-16T02:27:32Z
2019-08-16T00:30:14Z,42.805,6.029,13.2982,4.59976,2469.876,2019-8-16T02:30:35Z
2019-08-16T00:33:18Z,42.805,6.029,13.2970,4.59975,2469.867,2019-8-16T02:33:38Z
2019-08-16T00:36:21Z,42.805,6.029,13.2984,4.60005,2469.89,2019-8-16T02:36:42Z
2019-08-16T00:39:24Z,42.805,6.029,13.2994,4.59987,2469.83,2019-8-16T02:39:45Z
2019-08-16T00:42:27Z,42.805,6.029,13.3015,4.60009,2469.867,2019-8-16T02:42:48Z
2019-08-16T00:45:30Z,42.805,6.029,13.3004,4.60014,2469.867,2019-8-16T02:45:51Z
2019-08-16T00:48:34Z,42.805,6.029,13.3002,4.60011,2469.867,2019-8-16T02:48:54Z
2019-08-16T00:51:37Z,42.805,6.029,13.3004,4.60039,2469.89,2019-8-16T02:51:57Z
2019-08-16T00:54:40Z,42.805,6.029,13.2998,4.60038,2469.89,2019-8-16T02:55:01Z
2019-08-16T00:57:43Z,42.805,6.029,13.3011,4.60000,2469.844,2019-8-16T02:58:04Z
2019-08-16T01:00:46Z,42.805,6.029,13.3000,4.60063,2469.853,2019-8-16T03:01:07Z
2019-08-16T01:03:50Z,42.805,6.029,13.2995,4.60033,2469.83,2019-8-16T03:04:10Z
2019-08-16T01:06:53Z,42.805,6.029,13.3002,4.60017,2469.853,2019-8-16T03:07:13Z
2019-08-16T01:09:56Z,42.805,6.029,13.3004,4.60044,2469.844,2019-8-16T03:10:17Z
2019-08-16T01:12:59Z,42.805,6.029,13.3009,4.60023,2469.867,2019-8-16T03:13:20Z
2019-08-16T01:16:02Z,42.805,6.029,13.3014,4.60046,2469.867,2019-8-16T03:16:23Z
2019-08-16T01:19:06Z,42.805,6.029,13.3007,4.59985,2469.867,2019-8-16T03:19:26Z
2019-08-16T01:22:09Z,42.805,6.029,13.3005,4.59998,2469.89,2019-8-16T03:22:29Z
2019-08-16T01:25:12Z,42.805,6.029,13.2996,4.60019,2469.83,2019-8-16T03:25:33Z
2019-08-16T01:28:15Z,42.805,6.029,13.3002,4.60013,2469.867,2019-8-16T03:28:36Z
2019-08-16T01:31:18Z,42.805,6.029,13.3004,4.60008,2469.853,2019-8-16T03:31:39Z
2019-08-16T01:34:21Z,42.805,6.029,13.2985,4.60009,2469.844,2019-8-16T03:34:42Z
2019-08-16T01:37:25Z,42.805,6.029,13.3007,4.59998,2469.867,2019-8-16T03:37:45Z
2019-08-16T01:40:28Z,42.805,6.029,13.2998,4.59991,2469.844,2019-8-16T03:40:49Z
2019-08-16T01:43:31Z,42.805,6.029,13.3002,4.60017,2469.83,2019-8-16T03:43:52Z
2019-08-16T01:46:34Z,42.805,6.029,13.3000,4.59976,2469.806,2019-8-16T03:46:55Z
2019-08-16T01:49:38Z,42.805,6.029,13.2991,4.60006,2469.853,2019-8-16T03:49:58Z
2019-08-16T01:52:41Z,42.805,6.029,13.2986,4.60002,2469.844,2019-8-16T03:53:01Z
2019-08-16T01:55:44Z,42.805,6.029,13.2983,4.59993,2469.821,2019-8-16T03:56:05Z
2019-08-16T01:58:47Z,42.805,6.029,13.2984,4.60033,2469.844,2019-8-16T03:59:08Z
2019-08-16T02:01:50Z,42.805,6.029,13.2987,4.60037,2469.844,2019-8-16T04:02:11Z
2019-08-16T02:04:53Z,42.805,6.029,13.2990,4.60043,2469.83,2019-8-16T04:05:14Z
2019-08-16T02:07:57Z,42.805,6.029,13.2975,4.60051,2469.83,2019-8-16T04:08:17Z
2019-08-16T02:11:00Z,42.805,6.029,13.2982,4.60050,2469.83,2019-8-16T04:11:21Z
2019-08-16T02:14:03Z,42.805,6.029,13.2984,4.60024,2469.83,2019-8-16T04:14:24Z
2019-08-16T02:17:06Z,42.805,6.029,13.2998,4.60052,2469.783,2019-8-16T04:17:27Z
2019-08-16T02:20:09Z,42.805,6.029,13.2991,4.60014,2469.821,2019-8-16T04:20:30Z
2019-08-16T02:23:13Z,42.805,6.029,13.2978,4.60022,2469.821,2019-8-16T04:23:33Z
2019-08-16T02:26:16Z,42.805,6.029,13.2979,4.60052,2469.806,2019-8-16T04:26:37Z
2019-08-16T02:29:19Z,42.805,6.029,13.2981,4.60054,2469.83,2019-8-16T04:29:40Z
2019-08-16T02:32:22Z,42.805,6.029,13.2982,4.60041,2469.83,2019-8-16T04:32:43Z
2019-08-16T02:35:25Z,42.805,6.029,13.2979,4.60054,2469.83,2019-8-16T04:35:46Z
2019-08-16T02:38:29Z,42.805,6.029,13.3000,4.60039,2469.853,2019-8-16T04:38:49Z
2019-08-16T02:41:32Z,42.805,6.029,13.2981,4.60066,2469.844,2019-8-16T04:41:53Z
2019-08-16T02:44:35Z,42.805,6.029,13.3000,4.60052,2469.844,2019-8-16T04:44:56Z
2019-08-16T02:47:38Z,42.805,6.029,13.2982,4.60059,2469.844,2019-8-16T04:47:59Z
2019-08-16T02:50:41Z,42.805,6.029,13.2982,4.60054,2469.83,2019-8-16T04:51:02Z
2019-08-16T02:53:45Z,42.805,6.029,13.2973,4.60038,2469.844,2019-8-16T04:54:05Z
2019-08-16T02:56:48Z,42.805,6.029,13.2976,4.60037,2469.853,2019-8-16T04:57:09Z
2019-08-16T02:59:51Z,42.805,6.029,13.2976,4.60043,2469.83,2019-8-16T05:00:12Z
2019-08-16T03:02:54Z,42.805,6.029,13.3019,4.60020,2469.83,2019-8-16T05:03:15Z
2019-08-16T03:05:57Z,42.805,6.029,13.2980,4.59999,2469.806,2019-8-16T05:06:18Z
2019-08-16T03:09:01Z,42.805,6.029,13.2974,4.60001,2469.83,2019-8-16T05:09:21Z
2019-08-16T03:12:04Z,42.805,6.029,13.2982,4.60009,2469.844,2019-8-16T05:12:25Z
2019-08-16T03:15:07Z,42.805,6.029,13.2968,4.60021,2469.844,2019-8-16T05:15:28Z
2019-08-16T03:18:10Z,42.805,6.029,13.2982,4.60001,2469.83,2019-8-16T05:18:31Z
2019-08-16T03:21:13Z,42.805,6.029,13.2978,4.60007,2469.83,2019-8-16T05:21:34Z
2019-08-16T03:24:17Z,42.805,6.029,13.2967,4.60024,2469.844,2019-8-16T05:24:37Z
2019-08-16T03:27:20Z,42.805,6.029,13.2991,4.60021,2469.867,2019-8-16T05:27:41Z
2019-08-16T03:30:23Z,42.805,6.029,13.2998,4.60039,2469.783,2019-8-16T05:30:44Z
2019-08-16T03:33:26Z,42.805,6.029,13.2983,4.60036,2469.844,2019-8-16T05:33:47Z
2019-08-16T03:36:29Z,42.805,6.029,13.2971,4.60029,2469.83,2019-8-16T05:36:50Z
2019-08-16T03:39:33Z,42.805,6.029,13.2980,4.60031,2469.844,2019-8-16T05:39:53Z
2019-08-16T03:42:36Z,42.805,6.029,13.2978,4.60049,2469.83,2019-8-16T05:42:56Z
2019-08-16T03:45:39Z,42.805,6.029,13.2972,4.60041,2469.83,2019-8-16T05:46:00Z
2019-08-16T03:48:42Z,42.805,6.029,13.2983,4.60022,2469.83,2019-8-16T05:49:03Z
2019-08-16T03:51:45Z,42.805,6.029,13.2970,4.60036,2469.83,2019-8-16T05:52:06Z
2019-08-16T03:54:48Z,42.805,6.029,13.2996,4.60033,2469.83,2019-8-16T05:55:09Z
2019-08-16T03:57:52Z,42.805,6.029,13.2986,4.60025,2469.83,2019-8-16T05:58:12Z
2019-08-16T04:00:55Z,42.805,6.029,13.2975,4.60048,2469.83,2019-8-16T06:01:16Z
2019-08-16T04:03:58Z,42.805,6.029,13.3009,4.60062,2469.867,2019-8-16T06:04:19Z
2019-08-16T04:07:01Z,42.805,6.029,13.2974,4.60023,2469.806,2019-8-16T06:07:22Z
2019-08-16T04:10:04Z,42.805,6.029,13.2986,4.60031,2469.844,2019-8-16T06:10:25Z
2019-08-16T04:13:08Z,42.805,6.029,13.2989,4.60034,2469.867,2019-8-16T06:13:28Z
2019-08-16T04:16:11Z,42.805,6.029,13.2996,4.60033,2469.83,2019-8-16T06:16:32Z
2019-08-16T04:19:14Z,42.805,6.029,13.2989,4.60039,2469.853,2019-8-16T06:19:35Z
2019-08-16T04:22:17Z,42.805,6.029,13.2986,4.60063,2469.853,2019-8-16T06:22:38Z
2019-08-16T04:25:20Z,42.805,6.029,13.2987,4.60051,2469.867,2019-8-16T06:25:41Z
2019-08-16T04:28:23Z,42.805,6.029,13.3002,4.60034,2469.853,2019-8-16T06:28:44Z
2019-08-16T04:31:27Z,42.805,6.029,13.2995,4.60049,2469.876,2019-8-16T06:31:47Z
2019-08-16T04:34:30Z,42.805,6.029,13.2980,4.60023,2469.853,2019-8-16T06:34:51Z
2019-08-16T04:37:33Z,42.805,6.029,13.3001,4.60031,2469.876,2019-8-16T06:37:54Z
2019-08-16T04:40:36Z,42.805,6.029,13.2986,4.60027,2469.853,2019-8-16T06:40:57Z
2019-08-16T04:43:39Z,42.805,6.029,13.2971,4.60044,2469.867,2019-8-16T06:44:00Z
2019-08-16T04:46:43Z,42.805,6.029,13.2976,4.60051,2469.89,2019-8-16T06:47:03Z
2019-08-16T04:49:46Z,42.805,6.029,13.2982,4.60049,2469.853,2019-8-16T06:50:07Z
2019-08-16T04:52:49Z,42.805,6.029,13.2993,4.60009,2469.89,2019-8-16T06:53:10Z
2019-08-16T04:55:52Z,42.805,6.029,13.2993,4.60034,2469.867,2019-8-16T06:56:13Z
2019-08-16T04:58:55Z,42.805,6.029,13.2980,4.60031,2469.914,2019-8-16T06:59:16Z
2019-08-16T05:01:59Z,42.805,6.029,13.3000,4.60041,2469.876,2019-8-16T07:02:19Z
2019-08-16T05:05:02Z,42.805,6.029,13.2983,4.59994,2469.876,2019-8-16T07:05:23Z
2019-08-16T05:08:05Z,42.805,6.029,13.3026,4.60027,2469.9,2019-8-16T07:08:26Z
2019-08-16T05:11:08Z,42.805,6.029,13.2995,4.60043,2469.89,2019-8-16T07:11:29Z
2019-08-16T05:14:11Z,42.805,6.029,13.2976,4.60037,2469.937,2019-8-16T07:14:32Z
2019-08-16T05:17:15Z,42.805,6.029,13.2989,4.60026,2469.914,2019-8-16T07:17:35Z
2019-08-16T05:20:18Z,42.805,6.029,13.2974,4.60048,2469.923,2019-8-16T07:20:38Z
2019-08-16T05:23:21Z,42.805,6.029,13.2981,4.60030,2469.914,2019-8-16T07:23:42Z
2019-08-16T05:26:24Z,42.805,6.029,13.2968,4.60039,2469.9,2019-8-16T07:26:45Z
2019-08-16T05:29:27Z,42.805,6.029,13.2982,4.60025,2469.914,2019-8-16T07:29:48Z
2019-08-16T05:32:30Z,42.805,6.029,13.2986,4.60033,2469.923,2019-8-16T07:32:51Z
2019-08-16T05:35:34Z,42.805,6.029,13.2986,4.60059,2469.937,2019-8-16T07:35:54Z
2019-08-16T05:38:37Z,42.805,6.029,13.2970,4.60029,2469.937,2019-8-16T07:38:58Z
2019-08-16T05:41:40Z,42.805,6.029,13.2982,4.60016,2469.9,2019-8-16T07:42:01Z
2019-08-16T05:44:43Z,42.805,6.029,13.2979,4.60011,2469.923,2019-8-16T07:45:04Z
2019-08-16T05:47:46Z,42.805,6.029,13.2982,4.60035,2469.937,2019-8-16T07:48:07Z
2019-08-16T05:50:50Z,42.805,6.029,13.2982,4.59996,2469.9,2019-8-16T07:51:10Z
2019-08-16T05:53:53Z,42.805,6.029,13.2976,4.60010,2469.914,2019-8-16T07:54:14Z
2019-08-16T05:56:56Z,42.805,6.029,13.2976,4.60026,2469.9,2019-8-16T07:57:17Z
2019-08-16T05:59:59Z,42.805,6.029,13.2971,4.60010,2469.914,2019-8-16T08:00:20Z
2019-08-16T06:03:02Z,42.805,6.029,13.2991,4.60014,2469.937,2019-8-16T08:03:23Z
2019-08-16T06:06:06Z,42.805,6.029,13.2971,4.60011,2469.914,2019-8-16T08:06:26Z
2019-08-16T06:09:09Z,42.805,6.029,13.2971,4.60016,2469.914,2019-8-16T08:09:30Z
2019-08-16T06:12:12Z,42.805,6.029,13.2985,4.60036,2469.923,2019-8-16T08:12:33Z
2019-08-16T06:15:15Z,42.805,6.029,13.2982,4.60044,2469.937,2019-8-16T08:15:36Z
2019-08-16T06:18:18Z,42.805,6.029,13.2985,4.60026,2469.96,2019-8-16T08:18:39Z
2019-08-16T06:21:21Z,42.805,6.029,13.2987,4.60001,2469.923,2019-8-16T08:21:42Z
2019-08-16T06:24:25Z,42.805,6.029,13.3000,4.60032,2469.96,2019-8-16T08:24:45Z
2019-08-16T06:27:28Z,42.805,6.029,13.3011,4.60040,2469.923,2019-8-16T08:27:49Z
2019-08-16T06:30:31Z,42.805,6.029,13.3008,4.60033,2469.97,2019-8-16T08:30:52Z
2019-08-16T06:33:34Z,42.805,6.029,13.3017,4.60015,2469.96,2019-8-16T08:33:55Z
2019-08-16T06:36:37Z,42.805,6.029,13.3011,4.60026,2469.96,2019-8-16T08:36:58Z
2019-08-16T06:39:41Z,42.805,6.029,13.3005,4.60044,2469.923,2019-8-16T08:40:01Z
2019-08-16T06:42:44Z,42.805,6.029,13.3019,4.60024,2469.97,2019-8-16T08:43:05Z
2019-08-16T06:45:47Z,42.805,6.029,13.3020,4.60027,2469.947,2019-8-16T08:46:08Z
2019-08-16T06:48:50Z,42.805,6.029,13.3006,4.60032,2469.97,2019-8-16T08:49:11Z
2019-08-16T06:51:54Z,42.805,6.029,13.2996,4.60052,2469.96,2019-8-16T08:52:14Z
2019-08-16T06:54:57Z,42.805,6.029,13.2968,4.60049,2469.984,2019-8-16T08:55:17Z
2019-08-16T06:58:00Z,42.805,6.029,13.2988,4.60004,2469.947,2019-8-16T08:58:21Z
2019-08-16T07:01:03Z,42.805,6.029,13.3013,4.59999,2469.923,2019-8-16T09:01:24Z
2019-08-16T07:04:06Z,42.805,6.029,13.3016,4.60010,2469.96,2019-8-16T09:04:27Z
2019-08-16T07:07:09Z,42.805,6.029,13.3012,4.60041,2469.96,2019-8-16T09:07:30Z
2019-08-16T07:10:13Z,42.805,6.029,13.2996,4.60029,2469.937,2019-8-16T09:10:33Z
2019-08-16T07:13:16Z,42.805,6.029,13.3000,4.60024,2469.984,2019-8-16T09:13:37Z
2019-08-16T07:16:19Z,42.805,6.029,13.2998,4.59984,2470.007,2019-8-16T09:16:40Z
2019-08-16T07:19:22Z,42.805,6.029,13.3013,4.60029,2469.96,2019-8-16T09:19:43Z
2019-08-16T07:22:26Z,42.805,6.029,13.3011,4.60052,2469.96,2019-8-16T09:22:46Z
2019-08-16T07:25:29Z,42.805,6.029,13.3033,4.60015,2469.984,2019-8-16T09:25:50Z
2019-08-16T07:28:32Z,42.805,6.029,13.2976,4.60023,2469.96,2019-8-16T09:28:53Z
2019-08-16T07:31:35Z,42.805,6.029,13.2990,4.60021,2469.947,2019-8-16T09:31:56Z
2019-08-16T07:34:38Z,42.805,6.029,13.2974,4.60037,2469.984,2019-8-16T09:34:59Z
2019-08-16T07:37:42Z,42.805,6.029,13.2995,4.60023,2469.96,2019-8-16T09:38:02Z
2019-08-16T07:40:45Z,42.805,6.029,13.2991,4.60017,2469.96,2019-8-16T09:41:06Z
2019-08-16T07:43:48Z,42.805,6.029,13.3019,4.60014,2469.937,2019-8-16T09:44:09Z
2019-08-16T07:46:51Z,42.805,6.029,13.3009,4.60031,2469.947,2019-8-16T09:47:12Z
2019-08-16T07:49:55Z,42.805,6.029,13.3000,4.60022,2469.937,2019-8-16T09:50:15Z
2019-08-16T07:52:58Z,42.805,6.029,13.3006,4.60009,2469.947,2019-8-16T09:53:19Z
2019-08-16T07:56:01Z,42.805,6.029,13.2993,4.60020,2469.923,2019-8-16T09:56:22Z
2019-08-16T07:59:04Z,42.805,6.029,13.2990,4.60022,2469.937,2019-8-16T09:59:25Z
2019-08-16T08:02:07Z,42.805,6.029,13.2991,4.60023,2469.923,2019-8-16T10:02:28Z
2019-08-16T08:05:11Z,42.805,6.029,13.2996,4.60044,2469.923,2019-8-16T10:05:31Z
2019-08-16T08:08:14Z,42.805,6.029,13.3015,4.59999,2469.984,2019-8-16T10:08:35Z
2019-08-16T08:11:17Z,42.805,6.029,13.3021,4.60023,2469.984,2019-8-16T10:11:38Z
2019-08-16T08:14:20Z,42.805,6.029,13.3015,4.59998,2469.923,2019-8-16T10:14:41Z
2019-08-16T08:17:23Z,42.805,6.029,13.3013,4.60068,2469.937,2019-8-16T10:17:44Z
2019-08-16T08:20:27Z,42.805,6.029,13.3000,4.60046,2469.96,2019-8-16T10:20:47Z
2019-08-16T08:23:30Z,42.805,6.029,13.3007,4.60034,2469.937,2019-8-16T10:23:51Z
2019-08-16T08:26:33Z,42.805,6.029,13.2984,4.60017,2469.937,2019-8-16T10:26:54Z
2019-08-16T08:29:36Z,42.805,6.029,13.2988,4.60006,2469.947,2019-8-16T10:29:57Z
2019-08-16T08:32:40Z,42.805,6.029,13.2977,4.60011,2469.97,2019-8-16T10:33:00Z
2019-08-16T08:35:43Z,42.805,6.029,13.2983,4.60042,2469.96,2019-8-16T10:36:04Z
2019-08-16T08:38:46Z,42.805,6.029,13.2983,4.60025,2469.937,2019-8-16T10:39:07Z
2019-08-16T08:41:49Z,42.805,6.029,13.2986,4.60031,2469.937,2019-8-16T10:42:10Z
2019-08-16T08:44:52Z,42.805,6.029,13.2983,4.60024,2469.937,2019-8-16T10:45:13Z
2019-08-16T08:47:56Z,42.805,6.029,13.2990,4.60039,2469.947,2019-8-16T10:48:16Z
2019-08-16T08:50:59Z,42.805,6.029,13.2998,4.60024,2469.947,2019-8-16T10:51:20Z
2019-08-16T08:54:02Z,42.805,6.029,13.2980,4.60028,2469.923,2019-8-16T10:54:23Z
2019-08-16T08:57:05Z,42.805,6.029,13.3016,4.60037,2469.937,2019-8-16T10:57:26Z
2019-08-16T09:00:09Z,42.805,6.029,13.2996,4.60038,2469.9,2019-8-16T11:00:29Z
2019-08-16T09:03:12Z,42.805,6.029,13.2983,4.60030,2469.923,2019-8-16T11:03:33Z
2019-08-16T09:06:15Z,42.805,6.029,13.2971,4.60005,2469.937,2019-8-16T11:06:36Z
2019-08-16T09:09:18Z,42.805,6.029,13.2976,4.59991,2469.9,2019-8-16T11:09:39Z
2019-08-16T09:12:21Z,42.805,6.029,13.2979,4.60048,2469.914,2019-8-16T11:12:42Z
2019-08-16T09:15:25Z,42.805,6.029,13.2970,4.60034,2469.923,2019-8-16T11:15:45Z
2019-08-16T09:18:28Z,42.805,6.029,13.2988,4.60033,2469.923,2019-8-16T11:18:49Z
2019-08-16T09:21:31Z,42.805,6.029,13.2985,4.60053,2469.876,2019-8-16T11:21:52Z
2019-08-16T09:24:34Z,42.805,6.029,13.2982,4.60049,2469.9,2019-8-16T11:24:55Z
2019-08-16T09:27:38Z,42.805,6.029,13.2987,4.60006,2469.914,2019-8-16T11:27:58Z
2019-08-16T09:30:41Z,42.805,6.029,13.3014,4.60034,2469.914,2019-8-16T11:31:02Z
2019-08-16T09:33:44Z,42.805,6.029,13.2988,4.60020,2469.914,2019-8-16T11:34:05Z
2019-08-16T09:36:47Z,42.805,6.029,13.3004,4.60033,2469.914,2019-8-16T11:37:08Z
2019-08-16T09:39:50Z,42.805,6.029,13.2983,4.60031,2469.89,2019-8-16T11:40:11Z
2019-08-16T09:42:54Z,42.805,6.029,13.2995,4.60013,2469.914,2019-8-16T11:43:14Z
2019-08-16T09:45:57Z,42.805,6.029,13.3026,4.60027,2469.9,2019-8-16T11:46:18Z
2019-08-16T09:49:00Z,42.805,6.029,13.3027,4.60066,2469.876,2019-8-16T11:49:21Z
2019-08-16T09:52:03Z,42.805,6.029,13.3024,4.60024,2469.914,2019-8-16T11:52:24Z
2019-08-16T09:55:07Z,42.805,6.029,13.3031,4.60026,2469.89,2019-8-16T11:55:27Z
2019-08-16T09:58:10Z,42.805,6.029,13.3005,4.60001,2469.923,2019-8-16T11:58:31Z
2019-08-16T10:01:13Z,42.805,6.029,13.3002,4.59980,2469.9,2019-8-16T12:01:34Z
2019-08-16T10:04:16Z,42.805,6.029,13.3041,4.59984,2469.914,2019-8-16T12:04:37Z
2019-08-16T10:07:19Z,42.805,6.029,13.2981,4.59999,2469.914,2019-8-16T12:07:40Z
2019-08-16T10:10:23Z,42.805,6.029,13.3006,4.59981,2469.876,2019-8-16T12:10:43Z
2019-08-16T10:13:26Z,42.805,6.029,13.2999,4.59992,2469.867,2019-8-16T12:13:47Z
2019-08-16T10:16:29Z,42.805,6.029,13.3000,4.59988,2469.876,2019-8-16T12:16:50Z
2019-08-16T10:19:32Z,42.805,6.029,13.2996,4.59993,2469.876,2019-8-16T12:19:53Z
2019-08-16T10:22:36Z,42.805,6.029,13.3004,4.60018,2469.89,2019-8-16T12:22:56Z
2019-08-16T10:25:39Z,42.805,6.029,13.3011,4.60028,2469.876,2019-8-16T12:25:59Z
2019-08-16T10:28:42Z,42.805,6.029,13.3034,4.59996,2469.853,2019-8-16T12:29:03Z
2019-08-16T10:31:45Z,42.805,6.029,13.3014,4.59986,2469.914,2019-8-16T12:32:06Z
2019-08-16T10:34:48Z,42.805,6.029,13.3021,4.59996,2469.89,2019-8-16T12:35:09Z
2019-08-16T10:37:52Z,42.805,6.029,13.2991,4.59999,2469.876,2019-8-16T12:38:12Z
2019-08-16T10:40:55Z,42.805,6.029,13.3002,4.60005,2469.853,2019-8-16T12:41:16Z
2019-08-16T10:43:58Z,42.805,6.029,13.2985,4.60002,2469.867,2019-8-16T12:44:19Z
2019-08-16T10:47:01Z,42.805,6.029,13.2993,4.59983,2469.867,2019-8-16T12:47:22Z
2019-08-16T10:50:04Z,42.805,6.029,13.3024,4.59980,2469.844,2019-8-16T12:50:25Z
2019-08-16T10:53:08Z,42.805,6.029,13.3024,4.59989,2469.83,2019-8-16T12:53:28Z
2019-08-16T10:56:11Z,42.805,6.029,13.3026,4.59999,2469.876,2019-8-16T12:56:32Z
2019-08-16T10:59:14Z,42.805,6.029,13.3014,4.59986,2469.867,2019-8-16T12:59:35Z
2019-08-16T11:02:17Z,42.805,6.029,13.2993,4.59988,2469.867,2019-8-16T13:02:38Z
2019-08-16T11:05:21Z,42.805,6.029,13.2993,4.60014,2469.844,2019-8-16T13:05:41Z
2019-08-16T11:08:24Z,42.805,6.029,13.2996,4.60029,2469.853,2019-8-16T13:08:45Z
2019-08-16T11:11:27Z,42.805,6.029,13.3006,4.60003,2469.876,2019-8-16T13:11:48Z
2019-08-16T11:14:30Z,42.805,6.029,13.2998,4.59992,2469.83,2019-8-16T13:14:51Z
2019-08-16T11:17:34Z,42.805,6.029,13.3009,4.59993,2469.867,2019-8-16T13:17:54Z
2019-08-16T11:20:37Z,42.805,6.029,13.3000,4.60003,2469.821,2019-8-16T13:20:58Z
2019-08-16T11:23:40Z,42.805,6.029,13.2974,4.59984,2469.844,2019-8-16T13:24:01Z
2019-08-16T11:26:43Z,42.805,6.029,13.2991,4.59992,2469.853,2019-8-16T13:27:04Z
2019-08-16T11:29:47Z,42.805,6.029,13.2981,4.59990,2469.83,2019-8-16T13:30:07Z
2019-08-16T11:32:50Z,42.805,6.029,13.2990,4.60007,2469.83,2019-8-16T13:33:11Z
2019-08-16T11:35:53Z,42.805,6.029,13.2986,4.60001,2469.844,2019-8-16T13:36:14Z
2019-08-16T11:38:56Z,42.805,6.029,13.3031,4.60011,2469.806,2019-8-16T13:39:17Z
2019-08-16T11:41:59Z,42.805,6.029,13.3018,4.59989,2469.853,2019-8-16T13:42:20Z
2019-08-16T11:45:03Z,42.805,6.029,13.3003,4.60019,2469.844,2019-8-16T13:45:23Z
2019-08-16T11:48:06Z,42.805,6.029,13.3009,4.60012,2469.83,2019-8-16T13:48:27Z
2019-08-16T11:51:09Z,42.805,6.029,13.3016,4.59991,2469.83,2019-8-16T13:51:30Z
2019-08-16T11:54:12Z,42.805,6.029,13.3004,4.60013,2469.806,2019-8-16T13:54:33Z
2019-08-16T11:57:16Z,42.805,6.029,13.2997,4.60008,2469.83,2019-8-16T13:57:36Z
2019-08-16T12:00:19Z,42.805,6.029,13.2992,4.60010,2469.844,2019-8-16T14:00:40Z
2019-08-16T12:03:22Z,42.805,6.029,13.3014,4.60029,2469.867,2019-8-16T14:03:43Z
2019-08-16T12:06:25Z,42.805,6.029,13.3022,4.59977,2469.797,2019-8-16T14:06:46Z
2019-08-16T12:09:28Z,42.805,6.029,13.2989,4.60001,2469.797,2019-8-16T14:09:49Z
2019-08-16T12:12:32Z,42.805,6.029,13.3006,4.60077,2469.783,2019-8-16T14:12:52Z
2019-08-16T12:15:35Z,42.805,6.029,13.3029,4.60004,2469.797,2019-8-16T14:15:56Z
2019-08-16T12:18:38Z,42.805,6.029,13.3010,4.60011,2469.821,2019-8-16T14:18:59Z
2019-08-16T12:21:41Z,42.805,6.029,13.3014,4.60020,2469.83,2019-8-16T14:22:02Z
2019-08-16T12:24:45Z,42.805,6.029,13.2974,4.59999,2469.806,2019-8-16T14:25:05Z
2019-08-16T12:27:48Z,42.805,6.029,13.3024,4.59999,2469.783,2019-8-16T14:28:09Z
2019-08-16T12:30:51Z,42.805,6.029,13.3013,4.60016,2469.821,2019-8-16T14:31:12Z
2019-08-16T12:33:55Z,42.805,6.029,13.3008,4.60010,2469.844,2019-8-16T14:34:15Z
2019-08-16T12:36:58Z,42.805,6.029,13.3023,4.60031,2469.821,2019-8-16T14:37:19Z
2019-08-16T12:40:01Z,42.805,6.029,13.3026,4.59986,2469.797,2019-8-16T14:40:22Z
2019-08-16T12:43:04Z,42.805,6.029,13.3041,4.60001,2469.797,2019-8-16T14:43:25Z
2019-08-16T12:46:08Z,42.805,6.029,13.3024,4.60021,2469.806,2019-8-16T14:46:28Z
2019-08-16T12:49:11Z,42.805,6.029,13.3026,4.60019,2469.821,2019-8-16T14:49:32Z
2019-08-16T12:52:14Z,42.805,6.029,13.3034,4.60029,2469.783,2019-8-16T14:52:35Z
2019-08-16T12:55:17Z,42.805,6.029,13.3030,4.60022,2469.806,2019-8-16T14:55:38Z
2019-08-16T12:58:21Z,42.805,6.029,13.3032,4.59993,2469.797,2019-8-16T14:58:41Z
2019-08-16T13:01:24Z,42.805,6.029,13.3005,4.60018,2469.783,2019-8-16T15:01:45Z
2019-08-16T13:04:27Z,42.805,6.029,13.3008,4.60003,2469.783,2019-8-16T15:04:48Z
2019-08-16T13:07:30Z,42.805,6.029,13.3010,4.60085,2469.76,2019-8-16T15:07:51Z
2019-08-16T13:10:34Z,42.805,6.029,13.2991,4.60027,2469.773,2019-8-16T15:10:54Z
2019-08-16T13:13:37Z,42.805,6.029,13.3011,4.60011,2469.783,2019-8-16T15:13:58Z
2019-08-16T13:16:40Z,42.805,6.029,13.3029,4.60034,2469.797,2019-8-16T15:17:01Z
2019-08-16T13:19:43Z,42.805,6.029,13.3021,4.60052,2469.821,2019-8-16T15:20:04Z
2019-08-16T13:22:46Z,42.805,6.029,13.3025,4.60000,2469.797,2019-8-16T15:23:07Z
2019-08-16T13:25:50Z,42.805,6.029,13.3036,4.60003,2469.76,2019-8-16T15:26:10Z
2019-08-16T13:28:53Z,42.805,6.029,13.2991,4.60022,2469.773,2019-8-16T15:29:14Z
2019-08-16T13:31:56Z,42.805,6.029,13.3008,4.59976,2469.797,2019-8-16T15:32:17Z
2019-08-16T13:34:59Z,42.805,6.029,13.2987,4.59994,2469.783,2019-8-16T15:35:20Z
2019-08-16T13:38:02Z,42.805,6.029,13.3028,4.59992,2469.821,2019-8-16T15:38:23Z
2019-08-16T13:41:06Z,42.805,6.029,13.2999,4.60009,2469.773,2019-8-16T15:41:26Z
2019-08-16T13:44:09Z,42.805,6.029,13.3023,4.60007,2469.773,2019-8-16T15:44:30Z
2019-08-16T13:47:12Z,42.805,6.029,13.3018,4.60026,2469.797,2019-8-16T15:47:33Z
2019-08-16T13:50:15Z,42.805,6.029,13.3011,4.60014,2469.783,2019-8-16T15:50:36Z
2019-08-16T13:53:19Z,42.805,6.029,13.3011,4.60024,2469.797,2019-8-16T15:53:39Z
2019-08-16T13:56:22Z,42.805,6.029,13.3012,4.60001,2469.773,2019-8-16T15:56:43Z
2019-08-16T13:59:25Z,42.805,6.029,13.3020,4.60004,2469.773,2019-8-16T15:59:46Z
2019-08-16T14:02:28Z,42.805,6.029,13.3017,4.59999,2469.773,2019-8-16T16:02:49Z
2019-08-16T14:05:31Z,42.805,6.029,13.3019,4.60014,2469.806,2019-8-16T16:05:52Z
2019-08-16T14:08:35Z,42.805,6.029,13.3034,4.60001,2469.76,2019-8-16T16:08:55Z
2019-08-16T14:11:38Z,42.805,6.029,13.3018,4.60036,2469.737,2019-8-16T16:11:59Z
2019-08-16T14:14:41Z,42.805,6.029,13.3019,4.60031,2469.811,2019-8-16T16:15:02Z
2019-08-16T14:17:44Z,42.805,6.029,13.2988,4.60021,2469.797,2019-8-16T16:18:05Z
2019-08-16T14:20:47Z,42.805,6.029,13.3008,4.59996,2469.797,2019-8-16T16:21:08Z
2019-08-16T14:23:51Z,42.805,6.029,13.3046,4.59973,2469.773,2019-8-16T16:24:11Z
2019-08-16T14:26:54Z,42.805,6.029,13.3036,4.59984,2469.797,2019-8-16T16:27:15Z
2019-08-16T14:29:57Z,42.805,6.029,13.3003,4.59997,2469.821,2019-8-16T16:30:18Z
2019-08-16T14:33:01Z,42.805,6.029,13.2998,4.60007,2469.783,2019-8-16T16:33:21Z
2019-08-16T14:36:04Z,42.805,6.029,13.3006,4.60017,2469.797,2019-8-16T16:36:25Z
2019-08-16T14:39:07Z,42.805,6.029,13.3033,4.60006,2469.797,2019-8-16T16:39:28Z
2019-08-16T14:42:10Z,42.805,6.029,13.3032,4.60006,2469.773,2019-8-16T16:42:31Z
2019-08-16T14:45:13Z,42.805,6.029,13.3024,4.60040,2469.797,2019-8-16T16:45:34Z
2019-08-16T14:48:17Z,42.805,6.029,13.3033,4.59985,2469.797,2019-8-16T16:48:37Z
2019-08-16T14:51:20Z,42.805,6.029,13.3021,4.60024,2469.844,2019-8-16T16:51:41Z
2019-08-16T14:54:23Z,42.805,6.029,13.2986,4.60019,2469.797,2019-8-16T16:54:44Z
2019-08-16T14:57:26Z,42.805,6.029,13.3015,4.60010,2469.821,2019-8-16T16:57:47Z
2019-08-16T15:00:29Z,42.805,6.029,13.3007,4.59999,2469.797,2019-8-16T17:00:50Z
2019-08-16T15:03:33Z,42.805,6.029,13.3019,4.60009,2469.821,2019-8-16T17:03:53Z
2019-08-16T15:06:36Z,42.805,6.029,13.3019,4.60004,2469.797,2019-8-16T17:06:57Z
2019-08-16T15:09:39Z,42.805,6.029,13.3015,4.60033,2469.821,2019-8-16T17:10:00Z
2019-08-16T15:12:42Z,42.805,6.029,13.3034,4.60024,2469.83,2019-8-16T17:13:03Z
2019-08-16T15:15:45Z,42.805,6.029,13.3026,4.60022,2469.76,2019-8-16T17:16:06Z